category,name,time,total,current
水力(Hydro),谷關#3,00:00:00,54.4,0
水力(Hydro),谷關#3,00:10:00,54.4,0
水力(Hydro),谷關#3,00:20:00,54.4,0
水力(Hydro),谷關#3,00:30:00,54.4,0
水力(Hydro),谷關#3,00:40:00,54.4,0
水力(Hydro),谷關#3,00:50:00,54.4,0
水力(Hydro),谷關#3,01:00:00,54.4,0
水力(Hydro),谷關#3,01:10:00,54.4,0
水力(Hydro),谷關#3,01:20:00,54.4,0
水力(Hydro),谷關#3,01:30:00,54.4,0
水力(Hydro),谷關#3,01:40:00,54.4,0
水力(Hydro),谷關#3,01:50:00,54.4,0
水力(Hydro),谷關#3,02:00:00,54.4,0
水力(Hydro),谷關#3,02:10:00,54.4,0
水力(Hydro),谷關#3,02:20:00,54.4,0
水力(Hydro),谷關#3,02:30:00,54.4,0
水力(Hydro),谷關#3,02:40:00,54.4,0
水力(Hydro),谷關#3,02:50:00,54.4,0
水力(Hydro),谷關#3,03:00:00,54.4,0
水力(Hydro),谷關#3,03:10:00,54.4,0
水力(Hydro),谷關#3,03:20:00,54.4,0
水力(Hydro),谷關#3,03:30:00,54.4,0
水力(Hydro),谷關#3,03:40:00,54.4,0
水力(Hydro),谷關#3,03:50:00,54.4,0
水力(Hydro),谷關#3,04:00:00,54.4,0
水力(Hydro),谷關#3,04:10:00,54.4,0
水力(Hydro),谷關#3,04:20:00,54.4,0
水力(Hydro),谷關#3,04:30:00,54.4,0
水力(Hydro),谷關#3,04:40:00,54.4,0
水力(Hydro),谷關#3,04:50:00,54.4,0
水力(Hydro),谷關#3,05:00:00,54.4,0
水力(Hydro),谷關#3,05:10:00,54.4,0
水力(Hydro),谷關#3,05:20:00,54.4,0
水力(Hydro),谷關#3,05:30:00,54.4,0
水力(Hydro),谷關#3,05:40:00,54.4,0
水力(Hydro),谷關#3,05:50:00,54.4,0
水力(Hydro),谷關#3,06:00:00,54.4,0
水力(Hydro),谷關#3,06:10:00,54.4,0
水力(Hydro),谷關#3,06:20:00,54.4,0
水力(Hydro),谷關#3,06:30:00,54.4,0
水力(Hydro),谷關#3,06:40:00,54.4,0
水力(Hydro),谷關#3,06:50:00,54.4,0
水力(Hydro),谷關#3,07:00:00,54.4,0
水力(Hydro),谷關#3,07:10:00,54.4,0
水力(Hydro),谷關#3,07:20:00,54.4,0
水力(Hydro),谷關#3,07:30:00,54.4,0
水力(Hydro),谷關#3,07:40:00,54.4,0
水力(Hydro),谷關#3,07:50:00,54.4,0
水力(Hydro),谷關#3,08:00:00,54.4,0
水力(Hydro),谷關#3,08:10:00,54.4,0
水力(Hydro),谷關#3,08:20:00,54.4,0
水力(Hydro),谷關#3,08:30:00,54.4,0
水力(Hydro),谷關#3,08:40:00,54.4,0
水力(Hydro),谷關#3,08:50:00,54.4,0
水力(Hydro),谷關#3,09:00:00,54.4,0
水力(Hydro),谷關#3,09:10:00,54.4,0
水力(Hydro),谷關#3,09:20:00,54.4,0
水力(Hydro),谷關#3,09:30:00,54.4,0
水力(Hydro),谷關#3,09:40:00,54.4,37.6
水力(Hydro),谷關#3,09:50:00,54.4,41
水力(Hydro),谷關#3,10:00:00,54.4,39.6
水力(Hydro),谷關#3,10:10:00,54.4,48.4
水力(Hydro),谷關#3,10:20:00,54.4,49.2
水力(Hydro),谷關#3,10:30:00,54.4,50
水力(Hydro),谷關#3,10:40:00,54.4,48.3
水力(Hydro),谷關#3,10:50:00,54.4,47.4
水力(Hydro),谷關#3,11:00:00,54.4,48.6
水力(Hydro),谷關#3,11:10:00,54.4,49.6
水力(Hydro),谷關#3,11:20:00,54.4,47.5
水力(Hydro),谷關#3,11:30:00,54.4,46.3
水力(Hydro),谷關#3,11:40:00,54.4,48.3
水力(Hydro),谷關#3,11:50:00,54.4,47.4
水力(Hydro),谷關#3,12:00:00,54.4,46.2
水力(Hydro),谷關#3,12:10:00,54.4,47.3
水力(Hydro),谷關#3,12:20:00,54.4,47.5
水力(Hydro),谷關#3,12:30:00,54.4,47.4
水力(Hydro),谷關#3,12:40:00,54.4,48.8
水力(Hydro),谷關#3,12:50:00,54.4,48.3
水力(Hydro),谷關#3,13:00:00,54.4,47.4
水力(Hydro),谷關#3,13:10:00,54.4,48.4
水力(Hydro),谷關#3,13:20:00,54.4,46.1
水力(Hydro),谷關#3,13:30:00,54.4,47.8
水力(Hydro),谷關#3,13:40:00,54.4,47.2
水力(Hydro),谷關#3,13:50:00,54.4,46.3
水力(Hydro),谷關#3,14:00:00,54.4,48.4
水力(Hydro),谷關#3,14:10:00,54.4,47.4
水力(Hydro),谷關#3,14:20:00,54.4,46.7
水力(Hydro),谷關#3,14:30:00,54.4,46.8
水力(Hydro),谷關#3,14:40:00,54.4,48
水力(Hydro),谷關#3,14:50:00,54.4,46.8
水力(Hydro),谷關#3,15:00:00,54.4,47.5
水力(Hydro),谷關#3,15:10:00,54.4,48.5
水力(Hydro),谷關#3,15:20:00,54.4,47.1
水力(Hydro),谷關#3,15:30:00,54.4,49
水力(Hydro),谷關#3,15:40:00,54.4,47.8
水力(Hydro),谷關#3,15:50:00,54.4,46.5
水力(Hydro),谷關#3,16:00:00,54.4,47.6
水力(Hydro),谷關#3,16:10:00,54.4,46.7
水力(Hydro),谷關#3,16:20:00,54.4,46.3
水力(Hydro),谷關#3,16:30:00,54.4,46.1
水力(Hydro),谷關#3,16:40:00,54.4,46.8
水力(Hydro),谷關#3,16:50:00,54.4,46.9
水力(Hydro),谷關#3,17:00:00,54.4,44.9
水力(Hydro),谷關#3,17:10:00,54.4,45.6
水力(Hydro),谷關#3,17:20:00,54.4,46.8
水力(Hydro),谷關#3,17:30:00,54.4,48.3
水力(Hydro),谷關#3,17:40:00,54.4,45.3
水力(Hydro),谷關#3,17:50:00,54.4,47
水力(Hydro),谷關#3,18:00:00,54.4,48.9
水力(Hydro),谷關#3,18:10:00,54.4,46.1
水力(Hydro),谷關#3,18:20:00,54.4,47.1
水力(Hydro),谷關#3,18:30:00,54.4,48.4
水力(Hydro),谷關#3,18:40:00,54.4,48.6
水力(Hydro),谷關#3,18:50:00,54.4,45.5
水力(Hydro),谷關#3,19:00:00,54.4,48.6
水力(Hydro),谷關#3,19:10:00,54.4,47.8
水力(Hydro),谷關#3,19:20:00,54.4,48
水力(Hydro),谷關#3,19:30:00,54.4,49.1
水力(Hydro),谷關#3,19:40:00,54.4,48.6
水力(Hydro),谷關#3,19:50:00,54.4,48.7
水力(Hydro),谷關#3,20:00:00,54.4,46
水力(Hydro),谷關#3,20:10:00,54.4,47.2
水力(Hydro),谷關#3,20:20:00,54.4,47.4
水力(Hydro),谷關#3,20:30:00,54.4,47.1
水力(Hydro),谷關#3,20:40:00,54.4,46.4
水力(Hydro),谷關#3,20:50:00,54.4,48.5
水力(Hydro),谷關#3,21:00:00,54.4,48.5
水力(Hydro),谷關#3,21:10:00,54.4,49.1
水力(Hydro),谷關#3,21:20:00,54.4,46.8
水力(Hydro),谷關#3,21:30:00,54.4,47.4
水力(Hydro),谷關#3,21:40:00,54.4,48.6
水力(Hydro),谷關#3,21:50:00,54.4,49
水力(Hydro),谷關#3,22:00:00,54.4,49
水力(Hydro),谷關#3,22:10:00,54.4,47.4
水力(Hydro),谷關#3,22:20:00,54.4,49.2
水力(Hydro),谷關#3,22:30:00,54.4,46.1
水力(Hydro),谷關#3,22:40:00,54.4,49.8
水力(Hydro),谷關#3,22:50:00,54.4,49.5
水力(Hydro),谷關#3,23:00:00,54.4,48.3
水力(Hydro),谷關#3,23:10:00,54.4,46.8
水力(Hydro),谷關#3,23:20:00,54.4,48.1
水力(Hydro),谷關#3,23:30:00,54.4,47.8
水力(Hydro),谷關#3,23:40:00,54.4,43.5
水力(Hydro),谷關#3,23:50:00,54.4,45.1
